Voltar ao catálogo

TITAN 3C TRANSTAGE R/B

AtivoMEO
NORAD 12932·ROCKET BODY·🇺🇸 United States

Lançado Oct 31, 1981 de Cape Canaveral Space Force Station

Loading…

Próximas Passagens (próximas 24 horas)

TLE

AtualizadoSource: Space-Track

Época: Sep 13, 2026, 23:08 UTC

1 12932U 81107C   26256.96417943  .00000035  00000-0  00000-0 0  9996
2 12932   5.3190   7.6833 0999109 116.7453 253.8720  0.99593373 27103

Acompanhe TITAN 3C TRANSTAGE R/B em tempo real com AllMySat

Download on the App Store